Stockton, CA

6:35 AM PDT on June 19, 2018 (GMT -0700)
Stockton Metro

Weather History for KSCK - October, 2017

Change the Weather History Date:

Sunday, October 8, 2017

  Actual Average Record
Temperature  
Mean Temperature 68 °F -  
Max Temperature 84 °F 81 °F 99 °F (1996)
Min Temperature 52 °F 52 °F 44 °F (1975)
Degree Days  
Heating Degree Days 0 1  
Month to date heating degree days 3 8  
Since 1 July heating degree days 6 14  
Cooling Degree Days 3 3  
Month to date cooling degree days 19 29  
Year to date cooling degree days 1765 1295  
Growing Degree Days 18 (Base 50)    
Moisture  
Dew Point 37 °F    
Average Humidity 47    
Maximum Humidity 77    
Minimum Humidity 16    
Precipitation  
Precipitation 0.00 in 0.02 in 0.05 in (1973)
Month to date precipitation 0.00 0.12  
Year to date precipitation 15.63 9.45  
Snow  
Snow 0.00 in - 0.00 in (2002)
Month to date snowfall 0.0  
Since 1 July snowfall 0.0  
Since 1 September snowfall 0.0  
Snow Depth 0.00 in    
Sea Level Pressure  
Sea Level Pressure 29.78 in    
Wind  
Wind Speed 9 mph (NW)    
Max Wind Speed 26 mph    
Max Gust Speed 31 mph    
Visibility 9 miles    
Events      
T = Trace of Precipitation, MM = Missing Value Source: NWS Daily Summary

Daily Weather History Graph

Daily Weather History Graph

Search for Another Location

Airport or City:

Astronomy

Oct. 08, 2017 Rise Set
Actual Time 7:07 AM PDT 6:36 PM PDT
Civil Twilight 6:40 AM PDT 7:03 PM PDT
Nautical Twilight 6:10 AM PDT 7:33 PM PDT
Astronomical Twilight 5:39 AM PDT 8:04 PM PDT
Moon 9:05 PM PDT (10/8) 10:13 AM PDT (10/8)
Length of Visible Light 12h 22m
Length of Day
11h 29m
Waning Gibbous, 88% of the Moon is Illuminated
Oct 8
Waning Gibbous
Oct 12
Last Quarter
Oct 19
New
Oct 27
First Quarter
Nov 3
Full

Hourly Weather History & Observations

Time (PDT) Temp. Dew Point Humidity Pressure Visibility Wind Dir Wind Speed Gust Speed Precip Events Conditions
12:55 AM 60.1 °F 41.0 °F 49% 29.77 in 10.0 mi Calm Calm - N/A   Clear
1:55 AM 57.9 °F 43.0 °F 58% 29.77 in 10.0 mi Calm Calm - N/A   Clear
2:55 AM 55.9 °F 44.1 °F 64% 29.75 in 10.0 mi Calm Calm - N/A   Clear
3:55 AM 53.1 °F 41.0 °F 64% 29.75 in 10.0 mi North 5.8 mph - N/A   Clear
4:55 AM 54.0 °F 44.1 °F 69% 29.75 in 10.0 mi NNW 5.8 mph - N/A   Clear
5:55 AM 54.0 °F 44.1 °F 69% 29.76 in 10.0 mi NW 6.9 mph - N/A   Clear
6:55 AM 55.0 °F 48.9 °F 80% 29.78 in 10.0 mi NW 10.4 mph - N/A   Clear
7:55 AM 57.0 °F 50.0 °F 77% 29.80 in 10.0 mi NW 4.6 mph - N/A   Clear
8:55 AM 63.0 °F 50.0 °F 63% 29.82 in 10.0 mi West 8.1 mph - N/A   Clear
9:55 AM 69.1 °F 43.0 °F 39% 29.83 in 10.0 mi NNW 15.0 mph - N/A   Clear
10:55 AM 73.0 °F 41.0 °F 31% 29.83 in 10.0 mi NNW 12.7 mph 20.7 mph N/A   Clear
11:55 AM 77.0 °F 39.0 °F 25% 29.82 in 9.0 mi North 17.3 mph - N/A   Partly Cloudy
12:55 PM 80.1 °F 37.0 °F 21% 29.81 in 7.0 mi NNW 16.1 mph - N/A   Partly Cloudy
1:02 PM 79.0 °F 36.0 °F 21% 29.81 in 7.0 mi NW 19.6 mph - N/A   Overcast
1:55 PM 81.0 °F 35.1 °F 19% 29.78 in 7.0 mi NNW 17.3 mph - N/A   Overcast
2:55 PM 82.0 °F 35.1 °F 18% 29.77 in 8.0 mi NNW 21.9 mph 26.5 mph N/A   Overcast
3:55 PM 82.9 °F 35.1 °F 18% 29.75 in 10.0 mi NNW 20.7 mph - N/A   Overcast
4:04 PM 82.9 °F 34.0 °F 17% 29.76 in 10.0 mi NW 19.6 mph 27.6 mph N/A   Clear
4:55 PM 81.0 °F 30.9 °F 16% 29.75 in 8.0 mi NW 25.3 mph 31.1 mph N/A   Clear
5:55 PM 78.1 °F 28.0 °F 16% 29.76 in 9.0 mi NNW 19.6 mph - N/A   Clear
6:02 PM 78.1 °F 28.0 °F 16% 29.76 in 9.0 mi NW 20.7 mph 26.5 mph N/A   Overcast
6:55 PM 73.9 °F 26.1 °F 17% 29.77 in 10.0 mi NNW 13.8 mph - N/A   Overcast
7:55 PM 70.0 °F 26.1 °F 19% 29.77 in 10.0 mi NW 9.2 mph - N/A   Scattered Clouds
8:55 PM 68.0 °F 27.0 °F 21% 29.76 in 10.0 mi NW 9.2 mph - N/A   Clear
9:55 PM 61.0 °F 30.0 °F 31% 29.76 in 10.0 mi WNW 5.8 mph - N/A   Clear
10:55 PM 64.0 °F 28.0 °F 26% 29.78 in 10.0 mi NW 10.4 mph - N/A   Clear
11:55 PM 66.0 °F 27.0 °F 23% 29.79 in 10.0 mi NNW 12.7 mph - N/A   Clear